Regional Weather Roundup
Issued by NWS

Home | Current Version | Previous Version | Text Only | Print | Product List | Glossary On
Versions: 1 2 3 4 5 6 7 8 9 10 11 12 13 14 15 16 17 18 19 20 21 22 23 24 25 26 27 28 29 30 31 32 33 34 35 36 37 38 39 40 41 42 43 44 45 46 47 48 49 50
217
ASUS45 KPSR 111510
RWRAZ

ARIZONA HOURLY REGIONAL WEATHER ROUNDUP
NATIONAL WEATHER SERVICE PHOENIX AZ
800 AM MST SUN DEC 11 2016

NOTE: FAIR INDICATES FEW OR NO CLOUDS BELOW 12,000 FEET WITH NO
SIGNIFICANT WEATHER AND/OR OBSTRUCTIONS TO VISIBILITY.

AZZ001>003-036-111600-
NORTHWEST ARIZONA

CITY           SKY/WX    TMP DP  RH WIND       PRES   REMARKS
BULLHEAD CITY  CLEAR     54  37  54 NE5       30.05R
KINGMAN        MOCLDY    42  34  73 S5        30.08R
$$

AZZ004>008-015-016-018-111600-
NORTH CENTRAL ARIZONA

CITY           SKY/WX    TMP DP  RH WIND       PRES   REMARKS
GRAND CANYON   MOCLDY    31  31 100 SW3       30.14R
WILLIAMS       CLOUDY    41  34  75 SW7       30.15S
PRESCOTT       MOCLDY    38  35  89 NW9       30.13R WCI  31
FLAGSTAFF      CLOUDY    37  34  89 S6        30.15R WCI  32
PAYSON         PTCLDY    39  32  75 CALM      30.16R
PAGE           CLOUDY    47  33  58 S6        30.04R
$$

AZZ009>014-017-111600-
NORTHEAST ARIZONA

CITY           SKY/WX    TMP DP  RH WIND       PRES   REMARKS
WINSLOW        MOCLDY    38  34  85 CALM      30.12R
SAINT JOHNS    CLOUDY    41  33  73 CALM      30.11R
WINDOW ROCK    CLOUDY    42  33  70 VRB5      30.10R
SHOW LOW       CLOUDY    43  32  65 S16       30.14R
$$

AZZ023-111600-
GREATER PHOENIX AREA

CITY           SKY/WX    TMP DP  RH WIND       PRES   REMARKS
PHOENIX        MOCLDY    51  40  65 SE3       30.05R
BUCKEYE        PTCLDY    46  41  81 N3        30.07S
GLENDALE       PTCLDY    48  39  71 CALM      30.08R
LUKE AFB       PTCLDY    49  41  74 NE3       30.05R
DEER VALLEY    PTCLDY    55  39  54 NE7       30.05R
SCOTTSDALE     PTCLDY    50  41  71 CALM      30.07R
MESA-FALCON    CLEAR    N/A N/A N/A CALM      30.03R
MESA-GATEWAY   PTCLDY    46  36  66 E5        30.07R
CHANDLER       CLEAR     46  36  66 CALM      30.06R
$$

AZZ027-028-111600-
SOUTHWEST MARICOPA COUNTY AND PINAL COUNTY

CITY           SKY/WX    TMP DP  RH WIND       PRES   REMARKS
CASA GRANDE    NOT AVBL
GILA BEND      FAIR      49  36  61 NE6       30.04R
$$

AZZ503-504-507>509-111600-
SOUTHEAST ARIZONA

CITY           SKY/WX    TMP DP  RH WIND       PRES   REMARKS
TUCSON         PTCLDY    49  29  46 SE10      30.10R
DAVIS-MONTHAN  CLOUDY    46  30  53 E3        30.09R
RYAN FIELD     CLEAR     46  32  57 SE6       30.10
NOGALES        PTCLDY    41  26  55 SE6       30.13S
SIERRA VISTA   CLEAR     49  26  42 S8        30.14S
DOUGLAS        PTCLDY    35  26  69 CALM      30.14S
SAFFORD        CLEAR     40  31  70 S3        30.08R
$$

AZZ020-021-025-026-031-111600-
SOUTHWEST ARIZONA

CITY           SKY/WX    TMP DP  RH WIND       PRES   REMARKS
YUMA           CLOUDY    54  37  52 CALM      30.00S
$$

CAZ031-033-041-043-047-048-061-111600-
SOUTHERN CALIFORNIA

CITY           SKY/WX    TMP DP  RH WIND       PRES   REMARKS
DOWNTOWN L.A.  CLOUDY    59  57  93 E3        30.11R FOG
L.A. AIRPORT   CLOUDY    60  59  96 CALM      30.12R FOG
SAN DIEGO      MOCLDY    59  54  83 CALM      30.15R
BURBANK        CLOUDY    58  55  90 CALM      30.12R FOG
ONTARIO        FOG       56  56 100 CALM      30.12S VSB 1/2
RIVERSIDE      CLOUDY    57  57 100 CALM      30.13R FOG
PALM SPRINGS   CLEAR     55  45  68 VRB3      30.00
EL CENTRO NAS  PTCLDY    50  37  61 SW6       30.02S
IMPERIAL       PTCLDY    50  39  66 S3        30.00R
BLYTHE         PTCLDY    51  36  56 N3        30.03R
NEEDLES        PTCLDY    52  33  48 CALM      30.04R
$$

NVZ020-UTZ003-111600-
SOUTHERN NEVADA-UTAH

CITY           SKY/WX    TMP DP  RH WIND       PRES   REMARKS
LAS VEGAS      MOCLDY    46  30  53 W5        30.07R
SALT LAKE CITY MOCLDY    35  32  88 SW6       30.09R WCI  30
$$

NMZ009-TXZ055-111600-
NEW MEXICO-WEST TEXAS

CITY           SKY/WX    TMP DP  RH WIND       PRES   REMARKS
ALBUQUERQUE    CLOUDY    36  27  69 S8        30.04R WCI  30
EL PASO        PTSUNNY   51  32  48 S6        30.06R
$$


........................KEY........................
SKY/WX - SKY CONDITION/WEATHER
TMP    - TEMPERATURE IN FAHRENHEIT
DP     - DEW POINT IN FAHRENHEIT
RH     - RELATIVE HUMIDITY IN PERCENT
WIND   - DIRECTION AND SPEED IN MILES PER HOUR (MPH)
VRB    - VARIABLE WIND DIRECTION
PRES   - MEAN SEA LEVEL PRESSURE IN INCHES OF MERCURY
         F - FALLING PRESSURE   R - RISING PRESSURE
         S - STEADY PRESSURE
VSB    - VISIBILITY IN MILES
HX     - HEAT INDEX IN FAHRENHEIT
WCI    - WIND CHILL INDEX IN FAHRENHEIT
TC     - TEMPERATURE IN CELSIUS WHICH IS ALSO KNOWN AS
         TEMPERATURE IN CENTIGRADE
AFB    - AIR FORCE BASE
         LUKE AFB IS LUKE AIR FORCE BASE
         DAVIS-MONTHAN IS DAVIS-MONTHAN AIR FORCE BASE
NAS    - NAVAL AIR STATION
         EL CENTRO NAS IS EL CENTRO NAVAL AIR STATION
N/A    - NOT AVAILABLE





USA.gov is the U.S. government's official web portal to all federal, state and local government web resources and services.